TimeCDT,TemperatureF,Dew PointF,Humidity,Sea Level PressureIn,VisibilityMPH,Wind Direction,Wind SpeedMPH,Gust SpeedMPH,PrecipitationIn,Events,Conditions,WindDirDegrees,DateUTC
12:50 AM,80,52,27,29.86,2,SSE,8.9,,,,,160,2012-10-06 05:50:00
3:50 AM,74,56,44,29.87,2,South,4.5,,,,,180,2012-10-06 08:50:00
6:50 AM,68,54,51,29.90,2,SSE,2.2,,,,,160,2012-10-06 11:50:00
7:00 AM,-9999,-9999,N/A,29.97,10.0,SSE,8.1,-,N/A,,Clear,150,2012-10-06 12:00:00
7:40 AM,-9999,-9999,N/A,29.98,10.0,SSE,6.9,-,N/A,,Clear,150,2012-10-06 12:40:00
8:40 AM,-9999,-9999,N/A,30.00,12.0,SSE,8.1,-,N/A,,Clear,160,2012-10-06 13:40:00
9:50 AM,-9999,-9999,N/A,30.02,12.0,Calm,Calm,-,N/A,,Clear,0,2012-10-06 14:50:00
9:56 AM,73,50,33,29.95,7,SE,2.2,,,,,140,2012-10-06 14:56:00
10:40 AM,-9999,-9999,N/A,30.01,12.0,Calm,Calm,-,N/A,,Clear,0,2012-10-06 15:40:00
11:49 AM,-9999,-9999,N/A,30.00,12.0,Calm,Calm,-,N/A,,Clear,0,2012-10-06 16:49:00
12:40 PM,-9999,-9999,N/A,29.99,12.0,Calm,Calm,-,N/A,,Clear,0,2012-10-06 17:40:00
12:54 PM,87,54,22,29.94,7,NNE,2.2,,,,,20,2012-10-06 17:54:00
1:45 PM,-9999,-9999,N/A,29.95,12.0,Calm,Calm,-,N/A,,Clear,0,2012-10-06 18:45:00
2:40 PM,-9999,-9999,N/A,29.92,12.0,Calm,Calm,-,N/A,,Clear,0,2012-10-06 19:40:00
3:41 PM,95,51,14,29.83,7,SSW,2.2,,,,,210,2012-10-06 20:41:00
4:40 PM,-9999,-9999,N/A,29.88,12.0,NE,8.1,-,N/A,,Clear,50,2012-10-06 21:40:00
5:49 PM,-9999,-9999,N/A,29.85,12.0,NE,11.5,-,N/A,,Clear,40,2012-10-06 22:49:00
6:42 PM,-9999,-9999,N/A,29.87,12.0,NNE,12.7,-,N/A,,Clear,20,2012-10-06 23:42:00
6:43 PM,92,55,19,29.79,7,North,4.5,,,,,0,2012-10-06 23:43:00
9:50 PM,82,52,24,29.84,2,NNW,2.2,,,,,330,2012-10-07 02:50:00